Terminal Aerodrome Forecast
Issued by NWS

Home | Current Version | Previous Version | Text Only | Print | Product List | Glossary On
Versions: 1 2 3 4 5 6 7 8 9 10 11 12 13 14 15 16 17 18 19 20 21 22 23 24 25 26 27 28 29 30 31 32 33 34
000
FTUS46 KOTX 261915 AAA
TAFCOE
TAF AMD
KCOE 261915Z 2619/2718 VRB02KT 1SM BR OVC003
     FM262100 16004KT 2SM BR OVC006
     FM270000 18005KT 5SM BR BKN009 OVC012
     FM270700 20006KT P6SM OVC025
     FM270900 18006KT P6SM SCT025 BKN050
     FM271200 20011KT P6SM -RA BKN025 OVC050
      AMD LTD TO CLD AND VIS=

USA.gov is the U.S. government's official web portal to all federal, state and local government web resources and services.